[[{"header":{"parameterUnit":"m.s-1","parameterCategory":1,"la1":30.2991,"la2":30.254,"lo1":-89.0895,"lo2":-89.0444,"dy":0.0017,"dx":0.0017,"nx":28,"ny":28,"refTime":"2025-03-10T03:00:00:Z","depth":0,"parameterNumber":2,"parameterNumberName":"U-component_of_WINDS"},"data":[0,0,0,0,0,0,0,0,0,0,0,0,0,0,0,0,0,0,0,0,0,0,0,0,0,0,0,0,0,0,0,0,0,0,0,0,0,0,0,0,0,0,0,0,0,0,0,0,0,0,0,0,0,0,0,0,0,0,6.9348,6.935,0,6.9539,6.9542,6.9544,6.9499,6.9495,6.9491,6.9488,6.9684,6.9692,6.9701,0,0,0,0,0,0,0,0,0,0,0,0,0,6.8947,6.8954,6.9348,6.9351,6.9353,6.9539,6.9542,6.9544,6.9499,6.9495,6.9491,6.9486,6.9681,6.9691,6.9701,0,0,0,0,0,0,0,0,0,0,0,0,0,6.9128,6.8957,6.9348,6.9353,6.9355,6.9539,6.9542,6.9545,6.95,6.9495,6.9489,6.9484,6.9677,6.969,6.9703,6.9892,0,0,6.9742,6.9748,0,0,0,0,0,0,0,0,6.9117,6.9142,6.935,6.9353,6.9356,6.949,6.9472,6.9661,6.9502,6.9445,6.9488,6.9482,6.9624,6.9641,6.9688,6.9902,6.991,6.9743,6.9751,6.9757,6.976,0,0,0,0,0,0,0,6.9105,6.9134,6.9424,6.9353,6.9357,6.9347,6.9366,6.9507,6.9563,6.945,6.9447,6.947,6.9624,6.9676,6.9693,6.9913,6.9743,6.9755,6.9763,6.9768,7.0294,7.03,0,0,0,0,0,0,6.909,6.9124,6.9418,6.9429,6.9221,6.9358,6.938,6.9452,6.9561,6.9573,6.9475,6.9467,6.9657,6.9678,6.9699,6.993,6.9757,6.9769,6.9776,7.0288,7.0296,7.0302,0,0,0,0,0,0,6.9081,6.9116,6.941,6.9276,6.9313,6.9371,6.9452,6.9459,6.9511,6.958,6.959,6.9518,6.9653,6.9681,6.9845,6.9936,6.9775,6.9786,7.0281,7.029,7.0299,7.0392,0,0,0,0,0,0,6.907,6.9113,6.9185,6.9278,6.932,6.9552,6.9458,6.9467,6.9533,6.9525,6.9623,6.9634,6.9651,6.9826,6.9858,6.9951,6.9796,7.0273,7.0285,7.0296,7.0381,7.0404,7.0423,0,0,0,0,0,6.9056,6.9203,6.9189,6.9225,6.9411,6.9558,6.9582,6.9599,6.9541,6.9614,6.9659,6.9631,6.9921,6.9844,6.9879,6.9977,7.0267,7.0282,7.0295,7.0372,7.0399,7.0422,0,0,0,0,0,0,6.9119,6.9216,6.9201,6.9383,6.9463,6.955,6.9642,6.9627,6.9724,6.9713,6.973,6.9753,6.9921,6.9965,6.9877,7.0168,7.0086,7.0108,7.0132,7.0159,7.0179,7.0165,6.9807,0,0,0,0,0,6.9155,6.9265,6.9344,6.9497,6.9538,6.9584,6.9648,6.9655,6.9738,6.9771,6.9828,6.991,7.002,7.0092,7.0197,7.0388,7.041,7.0474,7.0494,7.0511,7.0529,7.0636,7.0666,7.0348,7.0348,7.0348,0,0,6.9228,6.9295,6.9363,6.9511,6.9574,6.9689,6.9612,6.9736,6.9822,6.979,6.9949,6.9994,7.0087,7.0266,7.0348,7.0308,7.0622,7.0529,7.0542,7.0551,7.0654,7.0684,7.071,7.0358,7.0356,7.0355,0,0,6.9422,6.9483,6.9618,6.9683,6.9779,6.9809,6.9842,6.9932,6.9961,7.0121,7.01,7.0203,7.0392,7.0459,7.0518,7.0742,7.072,7.0775,7.0883,7.0987,7.1012,7.1035,7.1116,7.1144,7.0794,7.0794,7.0794,0,6.9501,6.9673,6.9689,6.9817,6.9884,6.9861,6.9999,7.0061,7.0186,7.0233,7.0188,7.0426,7.0487,7.0683,7.0737,7.0786,7.0825,7.0764,7.1008,7.103,7.1051,7.1128,7.1159,7.08,7.08,7.0799,7.0798,0,6.9767,6.9887,6.9985,7.0108,7.0186,7.0318,7.0355,7.0432,7.0433,7.0468,7.0633,7.0705,7.0826,7.0873,7.0874,7.107,7.1043,7.1003,7.092,7.1087,7.116,7.119,7.0809,7.0807,7.0805,7.0804,0,0,7.0004,7.0136,7.0172,7.0228,7.0334,7.0428,7.056,7.0678,7.0744,7.0833,7.0945,7.1107,7.1071,7.1138,7.1147,7.1239,7.1413,7.1187,7.119,7.1227,7.1635,7.1665,7.1699,7.1399,7.1405,7.141,7.1628,0,7.0207,7.044,7.046,7.0669,7.0782,7.0763,7.0879,7.0957,7.0994,7.1095,7.1137,7.1252,7.1195,7.1236,7.1325,7.1373,7.1495,7.1357,7.1505,7.151,7.1482,7.1737,7.1769,7.1971,7.1656,7.1661,7.1665,0,7.0475,7.0573,7.0794,7.0886,7.0934,7.1037,7.1149,7.1246,7.1335,7.1356,7.1433,7.1431,7.1568,7.1482,7.1672,7.1578,7.164,7.1673,7.1681,7.1695,7.1597,7.1759,7.2035,7.2066,7.171,7.1706,7.1703,0,7.0627,7.0814,7.097,7.1019,7.1131,7.1204,7.1254,7.1338,7.1409,7.1507,7.1553,7.1666,7.1727,7.1815,7.1844,7.1778,7.2034,7.195,7.2056,7.2056,7.211,7.2107,7.2402,7.215,7.215,7.2149,7.2149,0,7.0853,7.0989,7.1041,7.1137,7.129,7.1312,7.1463,7.1509,7.1585,7.169,7.1682,7.1781,7.1813,7.1919,7.1943,7.2098,7.2126,7.2148,7.2152,7.2149,7.2146,7.2189,7.2176,7.2157,7.2156,7.2154,7.2153,0,7.1048,7.1088,7.1258,7.135,7.1377,7.1485,7.1565,7.1659,7.1695,7.183,7.1863,7.1921,7.2045,7.2083,7.2233,7.2249,7.2431,7.2423,7.2401,7.2401,7.2507,7.2496,7.2839,7.2886,7.2604,7.2607,7.2609,0,7.1189,7.1293,7.1398,7.1468,7.1522,7.1635,7.1708,7.1735,7.1811,7.1922,7.2003,7.2127,7.2226,7.2427,7.2483,7.2598,7.2593,7.2705,7.261,7.2604,7.2595,7.2589,7.26,7.2723,7.2726,7.2728,7.273,0,7.1435,7.1451,7.1556,7.1669,7.1757,7.1847,7.1934,7.1993,7.2032,7.2119,7.2246,7.2324,7.2478,7.2601,7.2719,7.2771,7.2759,7.276,7.2791,7.2788,7.2772,7.2783,7.245,7.2752,7.2749,7.2748,7.2747,7.2746,7.1609,7.1702,7.179,7.1908,7.1977,7.2059,7.2153,7.2202,7.2309,7.2436,7.2446,7.2585,7.2674,7.283,7.2889,7.2999,7.2966,7.3011,7.3022,7.3033,7.3042,7.2754,7.302,7.3019,7.3019,7.3018,7.3018,0,7.1856,7.1913,7.2021,7.2144,7.2238,7.2218,7.2314,7.2394,7.2516,7.26,7.2699,7.2847,7.2967,7.3033,7.3154,7.3229,7.3226,7.3259,7.3254,7.3267,7.3063,7.3025,7.326,7.326,7.326,7.326,7.326,7.3259,7.1995,7.2152,7.2179,7.237,7.2426,7.2562,7.2619,7.2695,7.2763,7.2928,7.3028,7.3071,7.3149,7.3275,7.3385,7.3402,7.3447,7.3484,7.3497,7.3306,7.3281,7.3257,7.3221,7.3493,7.3494,7.3692,7.3693,7.3695]},{"header":{"parameterUnit":"m.s-1","parameterCategory":1,"la1":30.2991,"la2":30.254,"lo1":-89.0895,"lo2":-89.0444,"dy":0.0017,"dx":0.0017,"nx":28,"ny":28,"refTime":"2025-03-10T03:00:00:Z","depth":0,"parameterNumber":3,"parameterNumberName":"V-component_of_WINDS"},"data":[0,0,0,0,0,0,0,0,0,0,0,0,0,0,0,0,0,0,0,0,0,0,0,0,0,0,0,0,0,0,0,0,0,0,0,0,0,0,0,0,0,0,0,0,0,0,0,0,0,0,0,0,0,0,0,0,0,0,-3.8789,-3.879,0,-3.889,-3.8891,-3.8893,-3.8882,-3.888,-3.8878,-3.8877,-3.898,-3.8984,-3.8988,0,0,0,0,0,0,0,0,0,0,0,0,0,-3.8588,-3.8591,-3.8789,-3.879,-3.8792,-3.889,-3.8892,-3.8893,-3.8882,-3.888,-3.8878,-3.8876,-3.8978,-3.8983,-3.8988,0,0,0,0,0,0,0,0,0,0,0,0,0,-3.868,-3.8593,-3.8789,-3.8798,-3.88,-3.889,-3.8892,-3.8893,-3.8882,-3.888,-3.8877,-3.8875,-3.8977,-3.8983,-3.8989,-3.9076,0,0,-3.9008,-3.9011,0,0,0,0,0,0,0,0,-3.8675,-3.8688,-3.8796,-3.8798,-3.88,-3.8871,-3.8858,-3.8955,-3.8883,-3.8851,-3.8877,-3.8874,-3.8945,-3.8954,-3.8978,-3.9081,-3.9085,-3.9009,-3.9013,-3.9016,-3.9017,0,0,0,0,0,0,0,-3.8669,-3.8683,-3.8829,-3.8797,-3.88,-3.8797,-3.8808,-3.8876,-3.891,-3.8854,-3.8853,-3.8865,-3.8946,-3.8972,-3.8981,-3.9087,-3.9009,-3.9014,-3.9018,-3.9021,-3.9268,-3.927,0,0,0,0,0,0,-3.866,-3.8678,-3.8826,-3.8832,-3.873,-3.8803,-3.8815,-3.8851,-3.891,-3.8916,-3.8867,-3.8864,-3.8963,-3.8973,-3.8984,-3.9091,-3.9016,-3.9021,-3.9025,-3.9265,-3.9268,-3.9271,0,0,0,0,0,0,-3.8656,-3.8673,-3.8822,-3.8755,-3.8774,-3.8809,-3.8849,-3.8854,-3.888,-3.892,-3.8926,-3.8888,-3.8961,-3.8975,-3.9054,-3.9094,-3.9024,-3.903,-3.9262,-3.9266,-3.927,-3.9304,0,0,0,0,0,0,-3.865,-3.8672,-3.8705,-3.8756,-3.8777,-3.889,-3.8852,-3.8857,-3.8891,-3.8888,-3.8941,-3.8947,-3.896,-3.9044,-3.906,-3.9102,-3.9035,-3.9258,-3.9264,-3.9269,-3.93,-3.9309,-3.9317,0,0,0,0,0,-3.8643,-3.871,-3.8707,-3.8725,-3.882,-3.8892,-3.8904,-3.8918,-3.8894,-3.8928,-3.8954,-3.8945,-3.9088,-3.9053,-3.907,-3.9114,-3.9256,-3.9262,-3.9268,-3.9296,-3.9307,-3.9317,0,0,0,0,0,0,-3.8663,-3.8717,-3.8714,-3.88,-3.8841,-3.889,-3.8933,-3.893,-3.8979,-3.8974,-3.899,-3.9002,-3.9081,-3.9106,-3.9066,-3.9203,-3.9168,-3.9178,-3.9183,-3.9195,-3.9203,-3.9195,-3.904,0,0,0,0,0,-3.8677,-3.8731,-3.8776,-3.8847,-3.8869,-3.8897,-3.8929,-3.8937,-3.898,-3.8998,-3.903,-3.9072,-3.9127,-3.9162,-3.9214,-3.9304,-3.9315,-3.9343,-3.9352,-3.9358,-3.9367,-3.9417,-3.943,-3.9292,-3.9292,-3.9292,0,0,-3.8707,-3.8744,-3.8777,-3.8852,-3.8885,-3.8941,-3.8912,-3.8972,-3.9014,-3.9007,-3.9083,-3.9108,-3.9157,-3.9242,-3.928,-3.9264,-3.9408,-3.9366,-3.9372,-3.9376,-3.9425,-3.9438,-3.9449,-3.9296,-3.9295,-3.9294,0,0,-3.8791,-3.8824,-3.8887,-3.8921,-3.8972,-3.8991,-3.9007,-3.9056,-3.9073,-3.915,-3.9146,-3.9196,-3.9289,-3.9325,-3.9355,-3.9454,-3.9448,-3.9471,-3.9516,-3.9565,-3.9575,-3.9585,-3.9621,-3.9633,-3.9479,-3.9479,-3.9479,0,-3.8821,-3.8905,-3.892,-3.8981,-3.9015,-3.9012,-3.9077,-3.911,-3.9175,-3.9199,-3.918,-3.9298,-3.9331,-3.9424,-3.9448,-3.9473,-3.9491,-3.9464,-3.9573,-3.9583,-3.9592,-3.9626,-3.964,-3.9481,-3.9481,-3.9481,-3.9481,0,-3.8941,-3.9,-3.9045,-3.9109,-3.9148,-3.9211,-3.9235,-3.9273,-3.9278,-3.9299,-3.9378,-3.9417,-3.9478,-3.9501,-3.9506,-3.9596,-3.9584,-3.9569,-3.9535,-3.9607,-3.964,-3.9653,-3.9485,-3.9484,-3.9483,-3.9483,0,0,-3.9038,-3.9111,-3.9127,-3.9157,-3.9213,-3.9259,-3.9322,-3.9382,-3.9415,-3.946,-3.9514,-3.9594,-3.9581,-3.9615,-3.9624,-3.9667,-3.9744,-3.9647,-3.9648,-3.9664,-3.9846,-3.9857,-3.9872,-3.9741,-3.9743,-3.9745,-3.9842,0,-3.9128,-3.9239,-3.9255,-3.9354,-3.9408,-3.9408,-3.9463,-3.9504,-3.9526,-3.9576,-3.96,-3.9657,-3.9635,-3.9656,-3.9698,-3.9726,-3.9781,-3.9719,-3.9791,-3.9793,-3.9778,-3.9889,-3.99,-3.9989,-3.9855,-3.9857,-3.9858,0,-3.9246,-3.9296,-3.94,-3.9451,-3.9474,-3.9523,-3.958,-3.9628,-3.9675,-3.9688,-3.9728,-3.9732,-3.9798,-3.9762,-3.9854,-3.9812,-3.9842,-3.986,-3.9864,-3.9871,-3.983,-3.9898,-4.0018,-4.0031,-3.9879,-3.9877,-3.9876,0,-3.9307,-3.94,-3.9474,-3.95,-3.956,-3.9595,-3.9622,-3.9667,-3.9703,-3.9753,-3.9776,-3.9833,-3.9864,-3.9908,-3.9928,-3.99,-4.0019,-3.9984,-4.0032,-4.0032,-4.0056,-4.0054,-4.0182,-4.0077,-4.0077,-4.0076,-4.0076,0,-3.9404,-3.9468,-3.9503,-3.9548,-3.962,-3.9639,-3.971,-3.9736,-3.9776,-3.9827,-3.983,-3.9878,-3.9902,-3.9954,-3.997,-4.0044,-4.0058,-4.0071,-4.0074,-4.007,-4.0069,-4.009,-4.0084,-4.008,-4.0079,-4.0078,-4.0078,0,-3.9484,-3.9509,-3.9591,-3.9642,-3.9657,-3.9708,-3.9752,-3.9797,-3.9819,-3.9884,-3.9901,-3.9936,-3.9997,-4.0022,-4.0097,-4.0108,-4.0193,-4.0192,-4.0177,-4.0178,-4.0224,-4.022,-4.037,-4.0391,-4.0272,-4.0273,-4.0274,0,-3.9544,-3.9594,-3.9651,-3.9685,-3.9714,-3.977,-3.9806,-3.9826,-3.9864,-3.9923,-3.9961,-4.0023,-4.0073,-4.0172,-4.0204,-4.0262,-4.0262,-4.0311,-4.027,-4.0266,-4.0263,-4.026,-4.0265,-4.0318,-4.0319,-4.032,-4.0321,0,-3.9649,-3.966,-3.9712,-3.977,-3.9813,-3.9859,-3.9904,-3.9933,-3.996,-4.0003,-4.0066,-4.0105,-4.0183,-4.0244,-4.0304,-4.0332,-4.0332,-4.0333,-4.0348,-4.0344,-4.0333,-4.034,-4.0197,-4.033,-4.0329,-4.0328,-4.0328,-4.0327,-3.9721,-3.9765,-3.9813,-3.9871,-3.9907,-3.995,-3.9995,-4.0023,-4.0076,-4.0141,-4.015,-4.0218,-4.0266,-4.0346,-4.0377,-4.0431,-4.0418,-4.0439,-4.0444,-4.0449,-4.0452,-4.0325,-4.0442,-4.0442,-4.0442,-4.0441,-4.0441,0,-3.9826,-3.9857,-3.9911,-3.9974,-4.002,-4.0016,-4.0066,-4.0105,-4.0165,-4.021,-4.0259,-4.0333,-4.0393,-4.0431,-4.0491,-4.0527,-4.0528,-4.0542,-4.054,-4.0546,-4.0459,-4.0441,-4.054,-4.054,-4.054,-4.054,-4.054,-4.054,-3.9886,-3.9961,-3.9977,-4.007,-4.0101,-4.0168,-4.0197,-4.0236,-4.0272,-4.0354,-4.0404,-4.0428,-4.047,-4.0534,-4.0589,-4.0599,-4.0621,-4.0636,-4.0645,-4.0563,-4.0552,-4.0543,-4.0526,-4.0641,-4.0641,-4.0727,-4.0728,-4.0729]}]]